EW1088 Weather Reports


Display with metric or nautical units.
time (UTC)temp
F
wind
direction
speed
MPH
gust
MPH
rain 1hr
in
rain 24hr
in
rain mn
in
humidity
%
barometer
mb
20260510201359 50 162 7.0 17.0 0.00 0.00 0.00 66 995.2
20260510200859 50 162 6.0 14.0 0.00 0.00 0.00 66 995.0
20260510200400 50 122 6.0 13.0 0.00 0.00 0.00 66 994.9
20260510195858 50 112 5.0 13.0 0.00 0.00 0.00 66 995.0
20260510195359 50 158 4.0 11.0 0.00 0.00 0.00 67 995.0
20260510194859 49 201 5.0 12.0 0.00 0.00 0.00 68 994.9
20260510194400 49 110 6.0 15.0 0.00 0.00 0.00 69 995.0
20260510193900 49 155 7.0 15.0 0.00 0.00 0.00 68 994.9
20260510193359 49 135 6.0 14.0 0.00 0.00 0.00 68 994.9
20260510192904 49 170 4.0 10.0 0.00 0.00 0.00 72 994.8
20260510192859 49 174 4.0 12.0 0.00 0.00 0.00 69 994.9
20260510191900 49 133 5.0 10.0 0.00 0.00 0.00 73 994.8
20260510191359 48 140 5.0 10.0 0.00 0.00 0.00 73 994.8
20260510190859 49 145 3.0 8.0 0.00 0.00 0.00 74 994.9
20260510190400 48 128 3.0 6.0 0.00 0.00 0.00 75 994.8
20260510185900 48 193 3.0 8.0 0.00 0.00 0.00 76 994.7
20260510185359 47 182 4.0 8.0 0.00 0.00 0.00 76 994.7
20260510184857 47 149 3.0 7.0 0.00 0.00 0.00 76 994.6
20260510184357 47 128 3.0 7.0 0.00 0.00 0.00 77 994.6
20260510183852 47 224 3.0 7.0 0.00 0.00 0.00 77 994.5
20260510183351 47 170 3.0 7.0 0.00 0.00 0.00 78 994.5
20260510182855 46 120 3.0 8.0 0.00 0.00 0.00 78 994.6
20260510182851 47 157 3.0 8.0 0.00 0.00 0.00 78 994.5
20260510181851 46 114 4.0 8.0 0.00 0.00 0.00 79 994.5
20260510181347 46 104 3.0 7.0 0.00 0.00 0.00 79 994.5
20260510180847 46 95 3.0 7.0 0.00 0.00 0.00 80 994.5
20260510180347 46 154 4.0 7.0 0.00 0.00 0.00 80 994.5
20260510175851 46 127 2.0 7.0 0.00 0.00 0.00 80 994.4
20260510175847 46 130 3.0 7.0 0.00 0.00 0.00 80 994.4
20260510174845 45 124 1.0 7.0 0.00 0.00 0.00 82 994.4
20260510174348 45 151 1.0 3.0 0.00 0.00 0.00 82 994.4
20260510174344 45 162 1.0 5.0 0.00 0.00 0.00 82 994.4
20260510173345 45 85 1.0 5.0 0.00 0.00 0.00 83 994.4
20260510173341 44 84 1.0 3.0 0.00 0.00 0.00 84 994.3
20260510172342 44 84 2.0 5.0 0.00 0.00 0.00 84 994.3
20260510171839 44 85 2.0 5.0 0.00 0.00 0.00 84 994.3
20260510171339 44 32 2.0 4.0 0.00 0.00 0.00 84 994.3
20260510170838 44 139 1.0 4.0 0.00 0.00 0.00 84 994.2
20260510170339 44 149 1.0 3.0 0.00 0.00 0.00 84 994.3
20260510165837 44 156 1.0 3.0 0.00 0.00 0.00 84 994.3
20260510165342 44 93 1.0 3.0 0.00 0.00 0.00 84 994.2
20260510165337 44 151 0.0 3.0 0.00 0.00 0.00 84 994.3
20260510164337 44 93 1.0 3.0 0.00 0.00 0.00 84 994.2
20260510163836 43 132 1.0 3.0 0.00 0.00 0.00 85 994.1
20260510163337 43 132 1.0 3.0 0.00 0.00 0.00 85 994.1
20260510162837 43 136 0.0 2.0 0.00 0.00 0.00 86 994.1
20260510162335 43 136 0.0 2.0 0.00 0.00 0.00 86 994.1
20260510161841 43 136 0.0 0.0 0.00 0.00 0.00 88 994.0
20260510161836 43 136 0.0 0.0 0.00 0.00 0.00 87 994.0
20260510160834 42 136 0.0 0.0 0.00 0.00 0.00 88 994.0
20260510160335 42 136 0.0 0.0 0.00 0.00 0.00 88 994.0
20260510155833 42 136 0.0 0.0 0.00 0.00 0.00 88 994.0
20260510155336 42 136 0.0 0.0 0.00 0.00 0.00 89 993.9
20260510155332 42 136 0.0 0.0 0.00 0.00 0.00 89 993.9
20260510154331 42 136 0.0 0.0 0.00 0.00 0.00 89 993.9
20260510153826 41 136 0.0 2.0 0.00 0.00 0.00 89 993.8
20260510153326 41 136 0.0 2.0 0.00 0.00 0.00 89 993.9
20260510152826 41 136 0.0 1.0 0.00 0.00 0.00 90 993.9
20260510152325 41 136 0.0 1.0 0.00 0.00 0.00 90 993.9
20260510151829 40 136 0.0 1.0 0.00 0.00 0.00 91 993.8
20260510151825 41 136 0.0 1.0 0.00 0.00 0.00 90 993.9
20260510150823 40 136 0.0 2.0 0.00 0.00 0.00 90 993.8
20260510150320 40 136 0.0 2.0 0.00 0.00 0.00 90 993.7
20260510145820 40 136 0.0 2.0 0.00 0.00 0.00 90 993.7
20260510145321 40 136 0.0 1.0 0.00 0.00 0.00 90 993.6
20260510144821 40 136 0.0 1.0 0.00 0.00 0.00 90 993.6
20260510144320 40 136 0.0 1.0 0.00 0.00 0.00 90 993.7
20260510143820 40 136 0.0 1.0 0.00 0.00 0.00 89 993.6
20260510143321 41 136 0.0 1.0 0.00 0.00 0.00 90 993.6
20260510142818 41 136 0.0 2.0 0.00 0.00 0.00 90 993.6
20260510142317 41 136 0.0 2.0 0.00 0.00 0.00 90 993.6
20260510141817 41 139 0.0 3.0 0.00 0.00 0.00 90 993.7
20260510141316 41 139 0.0 3.0 0.00 0.00 0.00 90 993.6
20260510140817 41 126 0.0 1.0 0.00 0.00 0.00 90 993.6
20260510140317 41 126 0.0 2.0 0.00 0.00 0.00 91 993.5
20260510135817 40 126 1.0 4.0 0.00 0.00 0.00 91 993.5
20260510135317 40 126 2.0 5.0 0.00 0.00 0.00 91 993.5
20260510134817 40 158 2.0 6.0 0.00 0.00 0.00 92 993.5
20260510134317 40 103 0.0 6.0 0.00 0.00 0.00 92 993.5
20260510133817 39 85 0.0 2.0 0.00 0.00 0.00 92 993.4
20260510133316 39 85 0.0 2.0 0.00 0.00 0.00 92 993.5
20260510132816 40 85 0.0 3.0 0.00 0.00 0.00 91 993.6
20260510132317 40 85 0.0 3.0 0.00 0.00 0.00 91 993.5
20260510131816 40 96 0.0 1.0 0.00 0.00 0.00 91 993.5
20260510131320 40 96 0.0 0.0 0.00 0.00 0.00 91 993.6
20260510131316 40 96 0.0 0.0 0.00 0.00 0.00 91 993.6
20260510130921 40 96 0.0 3.0 0.00 0.00 0.00 92 993.6
20260510125816 40 96 1.0 3.0 0.00 0.00 0.00 92 993.5
20260510125321 40 143 1.0 3.0 0.00 0.00 0.00 92 993.6
20260510125317 40 91 1.0 3.0 0.00 0.00 0.00 91 993.5
20260510124922 40 143 0.0 2.0 0.00 0.00 0.00 92 993.7
20260510123816 40 143 0.0 2.0 0.00 0.00 0.00 92 993.6
20260510123316 40 143 0.0 3.0 0.00 0.00 0.00 92 993.7
20260510122818 40 143 0.0 3.0 0.00 0.00 0.00 92 993.6
20260510122813 40 143 0.0 1.0 0.00 0.00 0.00 92 993.6
20260510121809 40 143 0.0 3.0 0.00 0.00 0.00 92 993.6
20260510121308 40 143 1.0 3.0 0.00 0.00 0.00 92 993.6
20260510120808 40 143 1.0 3.0 0.00 0.00 0.00 92 993.6
20260510120308 40 143 0.0 1.0 0.00 0.00 0.00 92 993.6
20260510115808 40 143 0.0 1.0 0.00 0.00 0.00 92 993.5
20260510115309 40 143 0.0 2.0 0.00 0.00 0.00 92 993.5
20260510114809 40 143 0.0 2.0 0.00 0.00 0.00 92 993.6
20260510114307 40 143 0.0 1.0 0.00 0.00 0.00 92 993.5
20260510113810 40 143 0.0 1.0 0.00 0.00 0.00 92 993.5
20260510113806 40 143 0.0 1.0 0.00 0.00 0.00 92 993.5
20260510112806 40 143 0.0 2.0 0.00 0.00 0.00 91 993.5
20260510112306 40 143 1.0 2.0 0.00 0.00 0.00 90 993.5
20260510111805 40 143 0.0 1.0 0.00 0.00 0.00 90 993.5
20260510111303 40 143 0.0 1.0 0.00 0.00 0.00 90 993.4
20260510110807 40 143 0.0 2.0 0.00 0.00 0.00 90 993.2
20260510110803 40 143 0.0 2.0 0.00 0.00 0.00 90 993.3
20260510105803 40 143 0.0 0.0 0.00 0.00 0.00 89 993.2
20260510105302 41 143 0.0 0.0 0.00 0.00 0.00 89 993.1
20260510104758 41 143 0.0 0.0 0.00 0.00 0.00 89 993.1
20260510104302 41 143 0.0 1.0 0.00 0.00 0.00 89 993.1
20260510104258 41 143 0.0 1.0 0.00 0.00 0.00 89 993.1
20260510103258 41 143 0.0 1.0 0.00 0.00 0.00 88 993.1
20260510102758 41 143 0.0 1.0 0.00 0.00 0.00 88 993.1
20260510102258 41 143 0.0 3.0 0.00 0.00 0.00 88 993.0
20260510101754 41 143 1.0 3.0 0.00 0.00 0.00 88 993.0
20260510101253 41 143 1.0 2.0 0.00 0.00 0.00 88 993.0
20260510100752 41 143 1.0 2.0 0.00 0.00 0.00 87 992.9
20260510100256 42 143 0.0 2.0 0.00 0.00 0.00 87 993.0
20260510100252 42 143 0.0 2.0 0.00 0.00 0.00 87 993.0
20260510095246 42 143 1.0 2.0 0.00 0.00 0.00 87 993.0
20260510094744 42 143 0.0 2.0 0.00 0.00 0.00 86 993.0
20260510094245 42 143 0.0 2.0 0.00 0.00 0.00 86 993.0
20260510093743 42 143 0.0 2.0 0.00 0.00 0.00 86 993.0
20260510093246 42 143 0.0 2.0 0.00 0.00 0.00 86 993.1
20260510093242 42 143 1.0 2.0 0.00 0.00 0.00 85 993.1
20260510092238 42 143 0.0 2.0 0.00 0.00 0.00 85 993.1
20260510091736 42 143 1.0 3.0 0.00 0.00 0.00 85 993.1
20260510091237 42 143 1.0 3.0 0.00 0.00 0.00 85 993.0
20260510090737 42 143 1.0 2.0 0.00 0.00 0.00 85 993.0
20260510090234 42 143 0.0 2.0 0.00 0.00 0.00 85 993.1
20260510085732 42 143 1.0 3.0 0.00 0.01 0.00 85 993.1
20260510085231 42 143 1.0 3.0 0.00 0.01 0.00 85 993.0
20260510084736 42 143 1.0 2.0 0.00 0.01 0.00 85 993.1
20260510084732 42 143 1.0 2.0 0.00 0.01 0.00 85 993.1
20260510083731 42 143 0.0 3.0 0.00 0.01 0.00 85 993.0
20260510083232 42 165 1.0 4.0 0.00 0.01 0.00 85 993.1
20260510082732 42 165 1.0 4.0 0.00 0.01 0.00 86 993.0
20260510082232 42 118 1.0 5.0 0.00 0.01 0.00 85 993.1
20260510081730 42 94 1.0 5.0 0.00 0.01 0.00 85 992.9
20260510081231 42 70 1.0 4.0 0.00 0.01 0.00 85 992.9
20260510080734 42 89 2.0 5.0 0.00 0.02 0.00 85 992.9
20260510080730 42 69 1.0 5.0 0.00 0.02 0.00 85 993.0
20260510075729 43 110 2.0 5.0 0.00 0.02 0.02 85 992.9
20260510075228 43 120 2.0 5.0 0.00 0.02 0.02 85 993.0
20260510074728 43 114 2.0 5.0 0.00 0.02 0.02 85 993.1
20260510074227 43 104 2.0 7.0 0.00 0.02 0.02 85 993.0
20260510073729 43 89 2.0 7.0 0.00 0.02 0.02 84 993.0
20260510073725 43 80 2.0 7.0 0.00 0.02 0.02 84 993.0
20260510072722 43 104 2.0 6.0 0.00 0.02 0.02 84 993.0
20260510072222 43 95 2.0 6.0 0.00 0.02 0.02 84 992.9
20260510071721 43 145 1.0 3.0 0.00 0.02 0.02 83 992.9
20260510071219 43 146 2.0 7.0 0.00 0.02 0.02 83 992.9
20260510070718 44 146 3.0 8.0 0.00 0.02 0.02 83 992.8
20260510070219 44 122 4.0 11.0 0.00 0.03 0.02 83 992.8
20260510065718 44 136 5.0 14.0 0.00 0.03 0.02 83 992.8
20260510065216 44 124 5.0 14.0 0.00 0.03 0.02 82 992.8
20260510064716 44 121 5.0 11.0 0.00 0.03 0.02 82 992.7
20260510064220 44 114 4.0 12.0 0.00 0.03 0.02 83 992.7
20260510064216 44 108 5.0 11.0 0.00 0.03 0.02 83 992.8
20260510063821 44 119 4.0 12.0 0.00 0.03 0.02 83 992.6
20260510062715 44 124 3.0 10.0 0.00 0.03 0.02 82 992.5
20260510062220 44 183 3.0 8.0 0.00 0.04 0.02 82 992.3
20260510062216 44 166 3.0 8.0 0.00 0.03 0.02 82 992.3
20260510061217 44 81 3.0 7.0 0.00 0.04 0.02 82 992.3
20260510061211 44 208 3.0 8.0 0.00 0.04 0.02 81 992.2
20260510060211 44 153 3.0 8.0 0.00 0.04 0.02 80 992.2
20260510055707 45 190 2.0 6.0 0.00 0.04 0.02 80 992.1
20260510055210 45 159 2.0 6.0 0.00 0.04 0.02 80 992.2
20260510055206 45 147 2.0 7.0 0.00 0.04 0.02 80 992.1
20260510054207 45 228 3.0 10.0 0.00 0.04 0.02 80 992.0
20260510054203 45 154 5.0 11.0 0.00 0.04 0.02 80 991.9
20260510053202 45 179 5.0 11.0 0.00 0.04 0.02 80 991.9
20260510052702 45 207 5.0 10.0 0.00 0.04 0.02 80 991.8
20260510052206 45 160 4.0 9.0 0.00 0.04 0.02 79 991.8
20260510052202 45 181 4.0 8.0 0.00 0.04 0.02 79 991.9
20260510051202 46 170 4.0 10.0 0.00 0.04 0.02 78 991.7
20260510051158 46 176 4.0 10.0 0.00 0.04 0.02 78 991.7
20260510050159 46 185 5.0 13.0 0.00 0.04 0.02 77 991.7
20260510045658 46 174 6.0 13.0 0.00 0.04 0.02 77 991.6
20260510045158 46 157 6.0 16.0 0.00 0.04 0.02 76 991.6
20260510044702 47 192 6.0 13.0 0.00 0.04 0.02 74 991.6
20260510044658 47 120 6.0 16.0 0.00 0.04 0.02 75 991.6
20260510043658 47 124 7.0 15.0 0.00 0.04 0.02 74 991.6
20260510043158 47 166 7.0 15.0 0.00 0.04 0.02 74 991.6
20260510042658 47 144 6.0 14.0 0.00 0.04 0.02 74 991.5
20260510042158 48 139 6.0 14.0 0.00 0.04 0.02 73 991.4
20260510041657 48 151 7.0 15.0 0.00 0.04 0.02 73 991.4
20260510041159 48 131 7.0 16.0 0.00 0.04 0.02 73 991.4
20260510040703 48 139 6.0 15.0 0.00 0.04 0.02 73 991.5
20260510040659 48 154 7.0 16.0 0.00 0.04 0.02 73 991.5
20260510035658 48 128 6.0 14.0 0.00 0.04 0.02 73 991.5
20260510035156 48 119 5.0 14.0 0.00 0.04 0.02 73 991.6
20260510034656 48 146 4.0 12.0 0.00 0.04 0.02 73 991.6
20260510034156 48 137 6.0 16.0 0.00 0.04 0.02 73 991.5
20260510033652 48 145 7.0 16.0 0.00 0.04 0.02 73 991.5
20260510033156 48 115 7.0 14.0 0.00 0.04 0.02 73 991.5
20260510033152 48 104 7.0 14.0 0.00 0.04 0.02 73 991.5
20260510032150 48 137 7.0 14.0 0.00 0.04 0.02 73 991.5
20260510031651 48 128 7.0 13.0 0.00 0.04 0.02 74 991.4
20260510031146 48 175 6.0 13.0 0.00 0.04 0.02 73 991.5
20260510030646 48 122 6.0 15.0 0.00 0.04 0.02 73 991.5
20260510030146 48 132 8.0 17.0 0.00 0.04 0.02 73 991.5
20260510025646 48 109 7.0 17.0 0.00 0.04 0.02 73 991.5
20260510025146 48 131 6.0 13.0 0.00 0.04 0.02 73 991.5
20260510024646 48 152 6.0 13.0 0.00 0.04 0.02 72 991.4
20260510024145 49 67 6.0 13.0 0.00 0.04 0.02 72 991.3
20260510023646 49 166 6.0 11.0 0.00 0.04 0.02 72 991.3
20260510023146 48 172 7.0 20.0 0.00 0.04 0.02 72 991.3
20260510022651 49 163 6.0 14.0 0.00 0.04 0.02 72 991.4
20260510022646 48 114 6.0 20.0 0.00 0.04 0.02 72 991.3
20260510021646 48 120 7.0 16.0 0.00 0.04 0.02 73 991.4
20260510021146 48 173 7.0 16.0 0.00 0.04 0.02 73 991.5
20260510020650 49 112 7.0 17.0 0.00 0.04 0.02 73 991.4
20260510020646 48 120 7.0 17.0 0.00 0.04 0.02 73 991.5
20260510015646 49 134 6.0 14.0 0.00 0.04 0.02 73 991.4
20260510015149 49 156 7.0 17.0 0.00 0.04 0.02 72 991.4
20260510015145 49 114 7.0 17.0 0.00 0.04 0.02 72 991.5
20260510014752 49 162 6.0 13.0 0.00 0.04 0.02 72 991.5
20260510013645 49 160 7.0 13.0 0.00 0.04 0.02 73 991.4
20260510013146 48 131 7.0 13.0 0.00 0.04 0.02 74 991.4
20260510012646 48 156 6.0 17.0 0.00 0.04 0.02 74 991.4
20260510012150 48 113 6.0 14.0 0.00 0.04 0.02 75 991.5
20260510012146 48 137 6.0 17.0 0.00 0.04 0.02 75 991.5
20260510011751 48 158 7.0 18.0 0.00 0.04 0.02 76 991.5
20260510010646 48 145 7.0 18.0 0.00 0.04 0.02 75 991.6
20260510010146 48 137 6.0 12.0 0.00 0.04 0.02 75 991.6
20260510005646 48 174 7.0 13.0 0.00 0.04 0.02 75 991.6
20260510005146 48 167 6.0 13.0 0.00 0.04 0.02 74 991.6
20260510004646 48 179 6.0 16.0 0.00 0.04 0.02 75 991.6
20260510004147 48 158 8.0 16.0 0.00 0.04 0.02 75 991.7
20260510003643 49 143 8.0 15.0 0.00 0.04 0.02 73 991.7
20260510003144 49 154 8.0 15.0 0.00 0.04 0.02 72 991.7
20260510002643 49 135 6.0 14.0 0.00 0.04 0.02 71 991.6
20260510002140 49 198 7.0 17.0 0.00 0.04 0.02 72 991.7
20260510001639 49 165 10.0 19.0 0.00 0.04 0.02 71 991.7
20260510001143 49 197 10.0 19.0 0.00 0.04 0.02 71 991.6
20260510001139 49 178 11.0 19.0 0.00 0.04 0.02 71 991.6
20260510000139 49 137 9.0 19.0 0.00 0.04 0.02 71 991.6
20260509235641 49 141 9.0 16.0 0.00 0.04 0.02 71 991.5
20260509235135 50 147 8.0 17.0 0.00 0.04 0.02 70 991.4
20260509234635 50 120 9.0 17.0 0.00 0.04 0.02 69 991.4
20260509234139 49 102 8.0 18.0 0.00 0.04 0.02 70 991.5
20260509234135 50 133 9.0 18.0 0.00 0.04 0.02 70 991.4
20260509233239 49 141 9.0 17.0 0.00 0.04 0.02 72 991.5
20260509232631 49 158 10.0 23.0 0.00 0.04 0.02 72 991.5
20260509232136 49 96 8.0 21.0 0.00 0.04 0.02 74 991.6
20260509232132 49 112 9.0 23.0 0.00 0.04 0.02 72 991.7
20260509231134 49 116 7.0 17.0 0.00 0.04 0.02 74 991.7
20260509231130 49 80 8.0 17.0 0.00 0.04 0.02 73 991.8
20260509230129 48 119 7.0 14.0 0.00 0.04 0.02 75 991.7
20260509225629 48 153 8.0 17.0 0.00 0.04 0.02 75 991.8
20260509225134 47 183 9.0 19.0 0.00 0.04 0.02 75 991.8
20260509225129 47 124 10.0 19.0 0.00 0.04 0.02 76 991.8
20260509224129 47 154 8.0 18.0 0.00 0.04 0.02 75 991.8
20260509223630 47 166 8.0 18.0 0.00 0.04 0.02 75 991.8
20260509223130 48 108 6.0 18.0 0.00 0.04 0.02 74 991.7
20260509222629 48 191 8.0 19.0 0.00 0.04 0.02 74 991.7
20260509222133 48 116 8.0 18.0 0.00 0.04 0.02 72 991.7
20260509222129 48 130 9.0 19.0 0.00 0.04 0.02 73 991.6
20260509221130 48 149 8.0 21.0 0.00 0.04 0.02 73 991.7
20260509220630 49 140 8.0 21.0 0.00 0.04 0.02 72 991.7
20260509220130 49 119 8.0 20.0 0.00 0.04 0.02 74 991.6
20260509215630 48 121 8.0 20.0 0.00 0.04 0.02 75 991.7
20260509215130 48 142 7.0 18.0 0.00 0.04 0.02 74 991.6
20260509214629 48 189 6.0 11.0 0.00 0.04 0.02 75 991.5
20260509214133 47 62 6.0 13.0 0.00 0.04 0.02 77 991.6
20260509214129 48 123 6.0 13.0 0.00 0.04 0.02 76 991.6
20260509213128 47 136 6.0 14.0 0.00 0.04 0.02 78 991.6
20260509212626 46 89 6.0 14.0 0.00 0.04 0.02 79 991.5
20260509212125 46 129 5.0 12.0 0.00 0.04 0.02 80 991.6
20260509211625 46 160 6.0 13.0 0.00 0.04 0.02 80 991.5
20260509211125 45 134 7.0 13.0 0.00 0.04 0.02 80 991.5
20260509210625 45 155 6.0 13.0 0.00 0.04 0.02 79 991.5
20260509210126 46 107 5.0 12.0 0.00 0.04 0.02 80 991.6
20260509205626 45 140 7.0 13.0 0.00 0.04 0.02 79 991.5
20260509205129 45 156 6.0 11.0 0.00 0.04 0.02 81 991.5
20260509205125 45 174 6.0 13.0 0.00 0.04 0.02 80 991.5
20260509204125 45 152 6.0 11.0 0.00 0.04 0.02 81 991.5
20260509203624 44 168 6.0 14.0 0.00 0.04 0.02 83 991.5
20260509203122 44 156 7.0 14.0 0.00 0.04 0.02 83 991.5
20260509202621 44 145 7.0 13.0 0.00 0.04 0.02 82 991.6
20260509202120 44 188 7.0 14.0 0.00 0.04 0.02 82 991.6